Regional Weather Roundup
Issued by NWS Memphis, TN

Home | Current Version | Previous Version | Text Only | Print | Product List | Glossary On
Versions: 1 2 3 4 5 6 7 8 9 10 11 12 13 14 15 16 17 18 19 20 21 22 23 24 25 26 27 28 29 30 31 32 33 34 35 36 37 38 39 40 41 42 43 44 45 46 47 48 49 50
580
ASUS44 KMEG 191310
RWRMEG
MEMPHIS CWA HOURLY WEATHER ROUNDUP
NATIONAL WEATHER SERVICE MEMPHIS TN
700 AM CST SUN FEB 19 2017

...WEST TENNESSEE...

CITY           SKY/WX    TMP DP  RH WIND       PRES   REMARKS
MEMPHIS INTL   PTCLDY    48  47  96 CALM      30.06R
NWS MEMPHIS      N/A     46 N/A N/A MISG        N/A
JACKSON        CLEAR     42  41  96 CALM      30.07R
BOLIVAR        FOG       43  41  93 CALM      30.07R VSB 1
UNION CITY     CLOUDY   N/A N/A N/A CALM      30.06R VSB 0
PARIS            N/A     41  41 100 CALM      30.06R VSB 0
HUNTINGDON     FOG       41  41 100 CALM      30.05R VSB 0


...EASTERN ARKANSAS...

CITY           SKY/WX    TMP DP  RH WIND       PRES   REMARKS
JONESBORO      CLEAR     50  49  96 SW5       30.05R
WEST MEMPHIS   FOG       44  44 100 S6        30.06R VSB 1/4
BATESVILLE     CLEAR     48  45  87 CALM      30.05R
NEWPORT        FOG       46  46 100 MISG      30.06  VSB 1/4
WALNUT RIDGE   CLOUDY    45  43  93 CALM      30.05R VSB<1/4
BLYTHEVILLE    PTCLDY    50  50 100 MISG      30.07R FOG
SEARCY         FOG       46  46 100 CALM      30.06S VSB<1/4
STUTTGART      MOCLDY    48  43  81 E7        30.05S
PINE BLUFF     CLOUDY    52  51  97 E3        30.04S FOG
MONTICELLO     CLEAR     52  50  93 E5        30.03S


...NORTH MISSISSIPPI...

CITY           SKY/WX    TMP DP  RH WIND       PRES   REMARKS
TUPELO         CLOUDY    46  43  89 CALM      30.09R
OXFORD         CLEAR     41  41 100 CALM      30.09S FOG
BATESVILLE     FOG       41  40  98 CALM      30.09R VSB 1/2
OLIVE BRANCH   CLEAR    N/A N/A N/A CALM      30.06
TUNICA         FOG       45  45 100 SE3       30.08R VSB<1/4
CORINTH        FOG       45  43  93 CALM      30.08R VSB 3/4
GREENWOOD      PTCLDY    46  43  89 N5        30.07R
COLUMBUS       FOG       45  45  99 CALM      30.09R VSB<1/4
GOLDEN TRIANGL MOCLDY    45  39  81 CALM      30.05R FOG


...SOUTHEAST MISSOURI...

CITY           SKY/WX    TMP DP  RH WIND       PRES   REMARKS
KENNETT        FOG       45  45 100 CALM      30.06R VSB<1/4
WEST PLAINS    FOG       40  39  97 CALM      30.05R VSB 1/4
POPLAR BLUFF   FOG       47  47 100 CALM      30.06R VSB 1/4
CAPE GIRARDEAU FOG       50  49  96 CALM      30.06R VSB 1/4


...NORTHWEST ALABAMA...

CITY           SKY/WX    TMP DP  RH WIND       PRES   REMARKS
MUSCLE SHOALS  FOG       43  41  93 W3        30.09R VSB 1/4


...MIDDLE TENNESSEE...

CITY           SKY/WX    TMP DP  RH WIND       PRES   REMARKS
NASHVILLE      MOCLDY    45  44  97 S3        30.08R FOG
CLARKSVILLE    FOG       40  39  97 SE3       30.07R VSB<1/4
COLUMBIA       CLOUDY   N/A N/A N/A CALM      30.07R VSB 1/2


...WESTERN KENTUCKY...

CITY           SKY/WX    TMP DP  RH WIND       PRES   REMARKS
PADUCAH        FOG       45  43  93 CALM      30.06R VSB<1/4
FORT CAMPBELL  FOG       45  45 100 CALM      30.06  VSB 1/4


...CENTRAL ARKANSAS...

CITY           SKY/WX    TMP DP  RH WIND       PRES   REMARKS
LITTLE ROCK    FOG       48  48 100 CALM      30.03F VSB 1/4


SKY/WX REPORTED AS FAIR MEANS FEW OR NO CLOUDS BELOW
12 THOUSAND FEET.





USA.gov is the U.S. government's official web portal to all federal, state and local government web resources and services.